Time,TemperatureF,DewpointF,PressureIn,WindDirection,WindDirectionDegrees,WindSpeedMPH,WindSpeedGustMPH,Humidity,HourlyPrecipIn,Conditions,Clouds,dailyrainin,SoftwareType,DateUTC
2013-07-10 00:11:00,72.0,70.0,30.24,SW,227,0.0,1.0,94,0.00,,,0.44,,2013-07-10 04:11:00,
2013-07-10 00:22:00,72.0,70.0,30.24,SW,227,0.0,1.0,94,0.00,,,0.44,,2013-07-10 04:22:00,
2013-07-10 00:33:00,72.0,70.0,30.24,SW,227,0.0,1.0,94,0.00,,,0.44,,2013-07-10 04:33:00,
2013-07-10 00:43:00,72.0,70.0,30.23,SW,227,0.0,0.0,94,0.00,,,0.44,,2013-07-10 04:43:00,
2013-07-10 00:52:00,72.0,70.0,30.23,SW,227,0.0,0.0,94,0.01,,,0.45,,2013-07-10 04:52:00,
2013-07-10 01:12:00,72.0,70.0,30.22,SW,227,0.0,0.0,95,0.02,,,0.46,,2013-07-10 05:12:00,
2013-07-10 01:32:00,72.0,70.0,30.21,SW,227,0.0,0.0,95,0.02,,,0.46,,2013-07-10 05:32:00,
2013-07-10 01:42:00,72.0,70.0,30.20,SW,227,0.0,0.0,95,0.02,,,0.46,,2013-07-10 05:42:00,
2013-07-10 02:01:00,72.0,70.0,30.20,SW,227,0.0,0.0,95,0.00,,,0.46,,2013-07-10 06:01:00,
2013-07-10 02:11:00,72.0,70.0,30.19,SW,227,0.0,1.0,95,0.00,,,0.46,,2013-07-10 06:11:00,
2013-07-10 02:32:00,72.0,71.0,30.19,SW,227,0.0,0.0,96,0.00,,,0.46,,2013-07-10 06:32:00,
2013-07-10 02:42:00,72.0,70.0,30.19,SW,227,0.0,0.0,95,0.00,,,0.46,,2013-07-10 06:42:00,
2013-07-10 02:52:00,72.0,70.0,30.19,SW,227,0.0,0.0,95,0.00,,,0.46,,2013-07-10 06:52:00,
2013-07-10 03:01:00,71.0,69.0,30.19,SW,227,0.0,0.0,95,0.00,,,0.46,,2013-07-10 07:01:00,
2013-07-10 03:12:00,71.0,70.0,30.18,SW,227,0.0,0.0,96,0.00,,,0.46,,2013-07-10 07:12:00,
2013-07-10 03:22:00,71.0,70.0,30.19,SW,227,0.0,0.0,96,0.00,,,0.46,,2013-07-10 07:22:00,
2013-07-10 03:33:00,71.0,70.0,30.18,SW,227,0.0,0.0,96,0.00,,,0.46,,2013-07-10 07:33:00,
2013-07-10 03:43:00,71.0,70.0,30.19,SW,227,0.0,0.0,96,0.00,,,0.46,,2013-07-10 07:43:00,
2013-07-10 03:53:00,71.0,70.0,30.18,SW,227,0.0,0.0,96,0.00,,,0.46,,2013-07-10 07:53:00,
2013-07-10 04:01:00,71.0,70.0,30.17,SW,227,0.0,0.0,96,0.00,,,0.46,,2013-07-10 08:01:00,
2013-07-10 04:11:00,71.0,70.0,30.18,SW,220,0.0,3.0,96,0.00,,,0.46,,2013-07-10 08:11:00,
2013-07-10 04:23:00,71.0,70.0,30.17,SW,220,0.0,0.0,96,0.00,,,0.46,,2013-07-10 08:23:00,
2013-07-10 04:33:00,71.0,70.0,30.17,SW,219,0.0,0.0,96,0.00,,,0.46,,2013-07-10 08:33:00,
2013-07-10 04:42:00,71.0,70.0,30.18,SW,220,0.0,0.0,96,0.00,,,0.46,,2013-07-10 08:42:00,
2013-07-10 04:53:00,71.0,70.0,30.18,SW,220,0.0,0.0,96,0.00,,,0.46,,2013-07-10 08:53:00,
2013-07-10 05:02:00,71.0,70.0,30.18,SW,219,0.0,0.0,96,0.00,,,0.46,,2013-07-10 09:02:00,
2013-07-10 05:12:00,71.0,70.0,30.18,SW,220,0.0,0.0,96,0.00,,,0.46,,2013-07-10 09:12:00,
2013-07-10 05:42:00,71.0,70.0,30.19,SW,220,0.0,0.0,96,0.00,,,0.46,,2013-07-10 09:42:00,
2013-07-10 05:52:00,71.0,70.0,30.18,SW,219,0.0,0.0,96,0.00,,,0.46,,2013-07-10 09:52:00,
2013-07-10 06:13:00,71.0,70.0,30.18,SW,220,0.0,0.0,96,0.00,,,0.46,,2013-07-10 10:13:00,
2013-07-10 06:23:00,71.0,70.0,30.18,SW,219,0.0,0.0,96,0.00,,,0.46,,2013-07-10 10:23:00,
2013-07-10 06:32:00,70.0,69.0,30.18,SW,219,0.0,0.0,96,0.00,,,0.46,,2013-07-10 10:32:00,
2013-07-10 06:50:00,-999.0,-99.9,30.18,SW,220,0.0,0.0,-999,-99.99,,,-99.99,,2013-07-10 10:50:00,
2013-07-10 07:00:00,-999.0,-99.9,30.19,SW,219,0.0,0.0,-999,-99.99,,,-99.99,,2013-07-10 11:00:00,
2013-07-10 07:11:00,70.0,69.0,30.19,SW,220,0.0,0.0,96,0.00,,,0.46,,2013-07-10 11:11:00,
2013-07-10 07:23:00,70.0,69.0,30.19,SW,220,0.0,0.0,96,0.00,,,0.46,,2013-07-10 11:23:00,
2013-07-10 07:33:00,70.0,69.0,30.18,SW,220,0.0,0.0,96,0.00,,,0.46,,2013-07-10 11:33:00,
2013-07-10 07:43:00,70.0,69.0,30.19,SW,220,0.0,0.0,97,0.00,,,0.46,,2013-07-10 11:43:00,
2013-07-10 07:52:00,71.0,70.0,30.19,SW,219,0.0,1.0,96,0.00,,,0.46,,2013-07-10 11:52:00,
2013-07-10 08:22:00,71.0,70.0,30.20,South,191,0.0,0.0,97,0.00,,,0.46,,2013-07-10 12:22:00,
2013-07-10 08:33:00,71.0,70.0,30.20,SSW,192,0.0,0.0,96,0.00,,,0.46,,2013-07-10 12:33:00,
2013-07-10 08:43:00,71.0,70.0,30.20,SSW,192,0.0,0.0,97,0.00,,,0.46,,2013-07-10 12:43:00,
2013-07-10 08:53:00,71.0,70.0,30.20,SSW,192,0.0,0.0,97,0.00,,,0.46,,2013-07-10 12:53:00,
2013-07-10 09:11:00,72.0,71.0,30.20,South,169,0.0,1.0,97,0.00,,,0.46,,2013-07-10 13:11:00,
2013-07-10 09:22:00,73.0,72.0,30.20,South,170,0.0,1.0,97,0.00,,,0.46,,2013-07-10 13:22:00,
2013-07-10 09:32:00,73.0,72.0,30.21,ENE,75,0.0,0.0,96,0.00,,,0.46,,2013-07-10 13:32:00,
2013-07-10 09:43:00,73.0,72.0,30.20,East,80,0.0,0.0,96,0.00,,,0.46,,2013-07-10 13:43:00,
2013-07-10 09:52:00,74.0,73.0,30.19,SW,227,0.0,2.0,96,0.00,,,0.46,,2013-07-10 13:52:00,
2013-07-10 10:01:00,74.0,72.0,30.19,SW,225,0.0,1.0,95,0.00,,,0.46,,2013-07-10 14:01:00,
2013-07-10 10:11:00,75.0,73.0,30.19,SW,234,0.0,3.0,93,0.00,,,0.46,,2013-07-10 14:11:00,
2013-07-10 10:43:00,76.0,73.0,30.19,NNE,29,0.0,1.0,91,0.00,,,0.46,,2013-07-10 14:43:00,
2013-07-10 10:53:00,77.0,74.0,30.19,WNW,283,1.0,4.0,90,0.00,,,0.46,,2013-07-10 14:53:00,
2013-07-10 11:01:00,78.0,74.0,30.19,SE,140,0.0,4.0,89,0.00,,,0.46,,2013-07-10 15:01:00,
2013-07-10 11:11:00,77.0,73.0,30.19,South,183,0.0,5.0,88,0.00,,,0.46,,2013-07-10 15:11:00,
2013-07-10 11:42:00,78.0,73.0,30.19,SW,225,2.0,5.0,85,0.00,,,0.46,,2013-07-10 15:42:00,
2013-07-10 11:52:00,78.0,73.0,30.19,NNW,333,0.0,4.0,85,0.00,,,0.46,,2013-07-10 15:52:00,
2013-07-10 12:01:00,78.0,73.0,30.19,SW,226,1.0,5.0,85,0.00,,,0.46,,2013-07-10 16:01:00,
2013-07-10 12:22:00,78.0,73.0,30.20,ENE,63,0.0,3.0,84,0.00,,,0.46,,2013-07-10 16:22:00,
2013-07-10 12:33:00,78.0,73.0,30.19,SW,223,1.0,4.0,85,0.00,,,0.46,,2013-07-10 16:33:00,
2013-07-10 12:44:00,78.0,73.0,30.19,NNW,338,1.0,6.0,84,0.00,,,0.46,,2013-07-10 16:44:00,
2013-07-10 12:53:00,79.0,73.0,30.19,WSW,243,1.0,7.0,82,0.00,,,0.46,,2013-07-10 16:53:00,
2013-07-10 13:11:00,81.0,73.0,30.18,WSW,245,0.0,9.0,78,0.00,,,0.46,,2013-07-10 17:11:00,
2013-07-10 13:23:00,81.0,73.0,30.17,ESE,119,1.0,4.0,78,0.00,,,0.46,,2013-07-10 17:23:00,
2013-07-10 13:32:00,81.0,73.0,30.17,WNW,288,0.0,3.0,78,0.00,,,0.46,,2013-07-10 17:32:00,
2013-07-10 13:43:00,81.0,73.0,30.17,West,268,0.0,4.0,78,0.00,,,0.46,,2013-07-10 17:43:00,
2013-07-10 13:52:00,81.0,73.0,30.17,West,268,0.0,4.0,78,0.00,,,0.46,,2013-07-10 17:52:00,
2013-07-10 14:11:00,83.0,75.0,30.16,South,176,1.0,5.0,77,0.00,,,0.46,,2013-07-10 18:11:00,
2013-07-10 14:44:00,84.0,74.0,30.14,SW,227,0.0,3.0,73,0.00,,,0.46,,2013-07-10 18:44:00,
2013-07-10 14:53:00,84.0,74.0,30.13,WNW,286,0.0,7.0,73,0.00,,,0.46,,2013-07-10 18:53:00,
2013-07-10 15:01:00,84.0,74.0,30.12,WSW,256,0.0,4.0,73,0.00,,,0.46,,2013-07-10 19:01:00,
2013-07-10 15:11:00,85.0,75.0,30.12,WSW,252,0.0,3.0,72,0.00,,,0.46,,2013-07-10 19:11:00,
2013-07-10 15:22:00,85.0,75.0,30.11,West,259,0.0,7.0,72,0.00,,,0.46,,2013-07-10 19:22:00,
2013-07-10 15:32:00,85.0,75.0,30.11,SSW,211,0.0,4.0,72,0.00,,,0.46,,2013-07-10 19:32:00,
2013-07-10 15:42:00,85.0,75.0,30.11,SW,225,1.0,3.0,71,0.00,,,0.46,,2013-07-10 19:42:00,
2013-07-10 15:52:00,86.0,75.0,30.10,East,87,1.0,4.0,70,0.00,,,0.46,,2013-07-10 19:52:00,
2013-07-10 16:01:00,86.0,75.0,30.09,WSW,243,0.0,2.0,71,0.00,,,0.46,,2013-07-10 20:01:00,
2013-07-10 16:11:00,86.0,75.0,30.08,ENE,59,0.0,3.0,69,0.00,,,0.46,,2013-07-10 20:11:00,
2013-07-10 16:22:00,85.0,75.0,30.08,SW,232,0.0,3.0,72,0.00,,,0.46,,2013-07-10 20:22:00,
2013-07-10 16:32:00,86.0,76.0,30.07,SW,236,0.0,5.0,72,0.00,,,0.46,,2013-07-10 20:32:00,
2013-07-10 16:43:00,86.0,75.0,30.08,East,98,0.0,1.0,70,0.00,,,0.46,,2013-07-10 20:43:00,
2013-07-10 16:52:00,87.0,76.0,30.07,East,91,1.0,3.0,69,0.00,,,0.46,,2013-07-10 20:52:00,
2013-07-10 17:01:00,87.0,75.0,30.08,WSW,245,0.0,2.0,68,0.00,,,0.46,,2013-07-10 21:01:00,
2013-07-10 17:11:00,87.0,76.0,30.07,SW,219,0.0,2.0,71,0.00,,,0.46,,2013-07-10 21:11:00,
2013-07-10 17:22:00,86.0,76.0,30.08,WSW,257,0.0,2.0,72,0.00,,,0.46,,2013-07-10 21:22:00,
2013-07-10 17:32:00,86.0,76.0,30.07,SW,233,0.0,1.0,73,0.00,,,0.46,,2013-07-10 21:32:00,
2013-07-10 17:42:00,86.0,76.0,30.07,WSW,248,0.0,4.0,72,0.00,,,0.46,,2013-07-10 21:42:00,
2013-07-10 17:52:00,86.0,76.0,30.06,SW,230,1.0,4.0,72,0.00,,,0.46,,2013-07-10 21:52:00,
2013-07-10 18:11:00,86.0,76.0,30.06,SE,128,0.0,2.0,73,0.00,,,0.46,,2013-07-10 22:11:00,
2013-07-10 18:21:00,86.0,76.0,30.05,ENE,78,0.0,2.0,72,0.00,,,0.46,,2013-07-10 22:21:00,
2013-07-10 18:42:00,80.0,74.0,30.07,SW,235,0.0,5.0,81,0.29,,,0.75,,2013-07-10 22:42:00,
2013-07-10 18:53:00,77.0,72.0,30.06,West,277,0.0,2.0,86,0.35,,,0.81,,2013-07-10 22:53:00,
2013-07-10 19:01:00,76.0,73.0,30.06,West,276,0.0,0.0,89,0.36,,,0.82,,2013-07-10 23:01:00,
2013-07-10 19:11:00,77.0,74.0,30.07,NE,40,0.0,0.0,91,0.36,,,0.82,,2013-07-10 23:11:00,
2013-07-10 19:22:00,77.0,74.0,30.07,NE,40,0.0,0.0,92,0.37,,,0.83,,2013-07-10 23:22:00,
2013-07-10 19:32:00,77.0,74.0,30.08,NE,40,0.0,0.0,92,0.37,,,0.83,,2013-07-10 23:32:00,
2013-07-10 19:43:00,77.0,74.0,30.08,NE,40,0.0,0.0,92,0.37,,,0.83,,2013-07-10 23:43:00,
2013-07-10 19:52:00,77.0,75.0,30.08,NE,40,0.0,0.0,93,0.02,,,0.83,,2013-07-10 23:52:00,
2013-07-10 20:01:00,77.0,75.0,30.08,NE,40,0.0,0.0,93,0.01,,,0.83,,2013-07-11 00:01:00,
2013-07-10 20:11:00,77.0,75.0,30.08,NE,40,0.0,0.0,93,0.01,,,0.83,,2013-07-11 00:11:00,
2013-07-10 20:22:00,77.0,75.0,30.07,NE,40,0.0,0.0,93,0.00,,,0.83,,2013-07-11 00:22:00,
2013-07-10 20:32:00,77.0,75.0,30.08,NE,40,0.0,0.0,93,0.00,,,0.83,,2013-07-11 00:32:00,
2013-07-10 20:42:00,77.0,75.0,30.08,NE,40,0.0,0.0,93,0.00,,,0.83,,2013-07-11 00:42:00,
2013-07-10 20:52:00,77.0,75.0,30.08,NE,40,0.0,0.0,94,0.00,,,0.83,,2013-07-11 00:52:00,
2013-07-10 21:01:00,77.0,75.0,30.08,NE,40,0.0,0.0,94,0.00,,,0.83,,2013-07-11 01:01:00,
2013-07-10 21:11:00,77.0,75.0,30.09,NE,40,0.0,0.0,94,0.00,,,0.83,,2013-07-11 01:11:00,
2013-07-10 21:22:00,77.0,75.0,30.09,NE,40,0.0,0.0,94,0.00,,,0.83,,2013-07-11 01:22:00,
2013-07-10 21:32:00,77.0,75.0,30.09,NE,40,0.0,0.0,94,0.00,,,0.83,,2013-07-11 01:32:00,
2013-07-10 21:43:00,76.0,74.0,30.10,NE,40,0.0,0.0,95,0.00,,,0.83,,2013-07-11 01:43:00,
2013-07-10 21:52:00,76.0,74.0,30.09,NE,40,0.0,0.0,95,0.00,,,0.83,,2013-07-11 01:52:00,
2013-07-10 22:02:00,76.0,74.0,30.09,NE,40,0.0,0.0,95,0.00,,,0.83,,2013-07-11 02:02:00,
2013-07-10 22:11:00,76.0,74.0,30.10,NE,40,0.0,0.0,95,0.00,,,0.83,,2013-07-11 02:11:00,
2013-07-10 22:22:00,76.0,74.0,30.10,NE,40,0.0,0.0,95,0.00,,,0.83,,2013-07-11 02:22:00,
2013-07-10 22:43:00,75.0,73.0,30.11,NE,40,0.0,0.0,95,0.00,,,0.39,,2013-07-11 02:43:00,
2013-07-10 23:02:00,74.0,72.0,30.11,SE,141,0.0,2.0,94,0.00,,,0.39,,2013-07-11 03:02:00,
2013-07-10 23:42:00,72.0,70.0,30.09,SE,142,0.0,0.0,94,0.01,,,0.40,,2013-07-11 03:42:00,
2013-07-10 23:52:00,71.0,69.0,30.09,SE,142,0.0,0.0,94,0.03,,,0.42,,2013-07-11 03:52:00,